Location: Centerville
(32.8776°N, 96.6203°W)
Time: 02:25:42
(UTC+00:00)

IDEFIX/ARIANE 42P - Pass Details

Date: 17 June 2021
Orbit: 784 x 803 km, 98.4° (Epoch: 27 July)

Event Time Altitude Azimuth Distance (km) Brightness Sun altitude
Rises 09:52:05 0° 359° (N) 3,307 6.4 -15.5°
Reaches altitude 10° 09:54:41 10° 349° (NNW) 2,370 5.4 -15.1°
Maximum altitude 09:59:08 29° 290° (WNW) 1,421 3.6 -14.4°
Enters shadow 10:01:43 19° 247° (WSW) 1,797 3.8 -14.0°
